QPF
0.00 0.00 0.00 0.00 0.00 0.00 0.00 0.00 0.00 0.00 0.00 0.01 0.02 0.00 0.00 0.00 0.00 0.00 0.00 0.00 0.00 0.00
0.00 0.00 0.00 0.00 0.00 0.00 0.00 0.00 0.00 0.01 0.00 0.00 0.02 0.01 0.00 0.00 0.00 0.00 0.00 0.00 0.00 0.00
0.00 0.00 0.00 0.00 0.00 0.00 0.00 0.00 0.00 0.01 0.03 0.03 0.03 0.00 0.00 0.00 0.00 0.00 0.00 0.00 0.00 0.00
0.00 0.00 0.00 0.00 0.00 0.00 0.00 0.00 0.00 0.00 0.00 0.01 0.02 0.02 0.04 0.01 0.00 0.00 0.00 0.00 0.00 0.00
0.00 0.00 0.00 0.00 0.00 0.00 0.00 0.00 0.00 0.00 0.00 0.00 0.00 0.00 0.00 0.00 0.00 0.00 0.00 0.00 0.00 0.00
0.00 0.00 0.00 0.00 0.00 0.00 0.00 0.00 0.00 0.00 0.00 0.00 0.00 0.00 0.00 0.00 0.00 0.00 0.00 0.00 0.00 0.00
0.00 0.00 0.00 0.00 0.00 0.00 0.00 0.00 0.00 0.00 0.00 0.00 0.00 0.00 0.00 0.00 0.00 0.00 0.00 0.00 0.00 0.00
0.00 0.00 0.00 0.00 0.00 0.00 0.00 0.00 0.00 0.00 0.00 0.00 0.00 0.00 0.00 0.00 0.00 0.00 0.00 0.00 0.00 0.00
0.00 0.00 0.00 0.00 0.00 0.00 0.00 0.00 0.00 0.00 0.00 0.00 0.00 0.00 0.00 0.00 0.00 0.00 0.00 0.00 0.00 0.00
0.00 0.00 0.00 0.00 0.00 0.00 0.00 0.00 0.00 0.00 0.00 0.00 0.00 0.00 0.00 0.00 0.00 0.00 0.00 0.00 0.00 0.00
0.01 0.00 0.01 0.00 0.00 0.00 0.00 0.00 0.00 0.00 0.00 0.00 0.00 0.00 0.00 0.00 0.00 0.00 0.00 0.00 0.00 0.00
0.00 0.00 0.00 0.00 0.02 0.02 0.00 0.00 0.00 0.00 0.00 0.00 0.00 0.00 0.00 0.00 0.00 0.00 0.00 0.00 0.00 0.00
0.00 0.02 0.02 0.03 0.05 0.06 0.01 0.00 0.00 0.00 0.00 0.00 0.00 0.00 0.00 0.00 0.00 0.00 0.00 0.00 0.00 0.00
0.01 0.03 0.06 0.06 0.13 0.16 0.08 0.04 0.00 0.00 0.00 0.00 0.00 0.00 0.00 0.00 0.00 0.00 0.00 0.00 0.00 0.00
MSLP
1018.07 1018.48 1018.84 1019.20 1019.56 1019.86 1020.10 1020.13 1020.24 1020.60 1020.99 1021.36 1021.82 1022.02 1022.25 1022.44 1022.57 1022.64 1023.02 1023.20 1023.31 1023.44
1017.80 1018.13 1018.44 1018.76 1019.14 1019.34 1019.51 1019.60 1019.85 1020.23 1020.61 1021.01 1021.43 1021.76 1021.99 1022.35 1022.48 1022.66 1022.94 1023.10 1023.21 1023.32
1017.13 1017.65 1017.94 1018.34 1018.68 1018.88 1019.11 1019.35 1019.62 1019.95 1020.26 1020.64 1020.98 1021.28 1021.64 1022.05 1022.14 1022.47 1022.71 1022.94 1023.14 1023.21
1016.92 1017.18 1017.76 1017.92 1018.20 1018.46 1018.69 1019.02 1019.38 1019.70 1020.02 1020.42 1020.70 1020.85 1021.28 1021.55 1021.87 1022.16 1022.43 1022.66 1022.82 1022.91
1016.16 1016.74 1017.24 1017.65 1017.66 1017.96 1018.26 1018.48 1018.89 1019.32 1019.68 1019.94 1020.29 1020.62 1020.94 1021.22 1021.41 1021.79 1022.06 1022.22 1022.48 1022.48
1015.63 1015.89 1016.49 1017.00 1017.36 1017.52 1017.67 1017.92 1018.33 1018.84 1019.26 1019.56 1019.78 1020.15 1020.40 1020.66 1020.95 1021.16 1021.40 1021.66 1021.96 1021.97
1015.09 1015.43 1015.57 1015.94 1016.59 1016.98 1017.12 1017.40 1017.57 1018.01 1018.54 1018.88 1019.16 1019.50 1019.83 1020.16 1020.42 1020.64 1020.80 1021.05 1021.28 1021.44
1014.05 1014.57 1015.11 1015.62 1015.85 1016.20 1016.67 1016.89 1017.10 1017.29 1017.68 1018.16 1018.52 1018.78 1019.10 1019.44 1019.71 1020.02 1020.20 1020.34 1020.57 1020.70
1013.28 1013.84 1014.30 1014.69 1015.17 1015.51 1015.87 1016.27 1016.63 1016.83 1016.92 1017.19 1017.56 1017.78 1018.13 1018.58 1018.99 1019.20 1019.48 1019.66 1019.86 1019.99
1012.86 1013.00 1013.33 1013.73 1014.41 1014.79 1014.92 1015.34 1015.78 1015.89 1016.24 1016.42 1016.60 1016.85 1017.20 1017.57 1018.01 1018.30 1018.50 1018.76 1019.04 1019.30
1012.38 1012.33 1012.42 1012.90 1013.33 1013.76 1014.20 1014.46 1014.81 1015.16 1015.20 1015.46 1015.67 1015.96 1016.31 1016.62 1017.03 1017.26 1017.35 1017.60 1017.91 1018.23
1012.06 1012.20 1012.36 1012.30 1012.56 1012.98 1013.52 1013.63 1013.75 1014.05 1014.38 1014.50 1014.58 1014.90 1015.32 1015.92 1016.28 1016.34 1016.35 1016.58 1016.82 1017.13
1012.14 1012.08 1011.81 1011.79 1011.97 1012.31 1012.54 1012.60 1012.84 1013.05 1013.14 1013.16 1013.38 1013.76 1014.11 1014.89 1015.37 1015.50 1015.52 1015.64 1015.88 1016.08
1012.36 1012.23 1011.74 1011.47 1011.54 1011.90 1012.00 1012.12 1011.99 1011.97 1012.06 1012.32 1012.40 1012.46 1012.96 1013.55 1014.29 1014.37 1014.48 1014.52 1014.62 1014.96
Thickness
5778 5775 5775 5774 5773 5774 5771 5773 5773 5771 5769 5766 5764 5763 5762 5761 5761 5761 5760 5760 5762 5762
5779 5777 5777 5777 5776 5777 5777 5778 5777 5775 5773 5770 5768 5766 5764 5762 5761 5761 5761 5761 5762 5763
5782 5780 5780 5780 5779 5779 5780 5778 5778 5776 5775 5773 5772 5771 5767 5765 5764 5763 5763 5763 5763 5763
5780 5781 5779 5781 5781 5783 5782 5780 5779 5778 5777 5774 5774 5773 5771 5769 5768 5767 5766 5765 5765 5765
5782 5780 5779 5779 5781 5782 5783 5782 5781 5780 5779 5779 5776 5775 5774 5772 5772 5770 5768 5768 5767 5768
5780 5782 5781 5779 5779 5782 5784 5785 5784 5782 5781 5781 5781 5779 5778 5777 5776 5774 5773 5772 5770 5771
5777 5779 5782 5783 5780 5781 5784 5785 5787 5787 5785 5784 5785 5784 5782 5779 5779 5778 5776 5775 5774 5773
5781 5781 5779 5779 5781 5781 5781 5783 5786 5788 5788 5786 5786 5786 5784 5783 5782 5781 5780 5779 5778 5776
5781 5780 5780 5780 5778 5779 5781 5781 5782 5784 5787 5788 5789 5789 5788 5786 5784 5784 5783 5782 5781 5780
5777 5780 5781 5781 5779 5779 5781 5782 5781 5785 5786 5788 5790 5790 5789 5788 5787 5786 5786 5786 5784 5783
5774 5778 5780 5780 5781 5781 5781 5782 5782 5782 5787 5789 5792 5790 5789 5788 5788 5788 5790 5789 5789 5787
5770 5771 5773 5777 5780 5779 5777 5781 5785 5785 5785 5789 5793 5792 5790 5785 5787 5788 5790 5791 5792 5792
5758 5762 5769 5772 5774 5775 5778 5781 5783 5785 5790 5794 5796 5795 5793 5787 5788 5788 5790 5791 5793 5793
5745 5751 5760 5767 5769 5769 5772 5775 5781 5784 5788 5792 5796 5799 5795 5791 5790 5792 5791 5793 5795 5797